User: anonymous   Login
Location: ActonStarParty
(42.4766°N, 71.4538°W)
Time: 15:44:24
(UTC-04:00)
Language:

Cosmos 1300 - Orbit

View from above orbital plane
View from above orbital plane
View from above satellite
View from above satellite

Ground track
Ground track

The orbit data is extracted from the following two-line orbital elements,

1 12785U 81082A   17235.50636572  .00000701  00000-0  34126-4 0  9992
2 12785  82.5055   6.7284 0002142  59.7104  23.3319 15.16784811962057
Epoch (UTC): 23 August 2017 12:09:09
Eccentricity: 0.0002142
inclination: 82.5055°
perigee height: 514 km
apogee height: 517 km
right ascension of ascending node: 6.7284°
argument of perigee: 59.7104°
revolutions per day: 15.16784811
mean anomaly at epoch: 23.3319°
orbit number at epoch: 96205

The dashed part of the orbit path shows where the satellite is in the earth's shadow,  

DLR